[[{"header":{"parameterUnit":"m.s-1","parameterCategory":1,"la1":30.2992,"la2":30.254,"lo1":-89.0895,"lo2":-89.0443,"dy":0.0025,"dx":0.0025,"nx":19,"ny":19,"refTime":"2026-04-16T03:00:00:Z","depth":0,"parameterNumber":2,"parameterNumberName":"U-component_of_WINDS"},"data":[0,0,0,-0.8959,-0.8961,-0.9066,-0.9067,-0.9195,-0.9196,0,0,0,0,0,0,0,0,0,0,0,-0.8921,-0.8922,-0.8959,-0.8961,-0.9066,-0.9067,-0.9195,-0.9196,0,0,0,0,0,0,0,0,0,0,0,-0.8921,-0.8922,-0.8922,-0.8961,-0.9066,-0.9067,-0.9195,-0.9118,0,0,0,0,0,0,0,0,0,0,-0.9017,-0.8976,-0.8921,-0.8922,-0.8962,-0.9066,-0.9067,-0.9115,-0.9123,-0.9144,0,-0.9159,0,-0.9179,-0.9204,-0.9205,0,0,0,-0.8967,-0.8969,-0.9003,-0.8923,-0.8963,-0.9066,-0.902,-0.9119,-0.9129,-0.9155,-0.9161,-0.9166,-0.9182,-0.9205,-0.9206,-0.9303,-0.9304,0,0,-0.8961,-0.8938,-0.8996,-0.9008,-0.8989,-0.9017,-0.9023,-0.9125,-0.9131,-0.9161,-0.9169,-0.9184,-0.9206,-0.9207,-0.9303,-0.9303,0,0,0,-0.894,-0.8933,-0.8965,-0.9003,-0.9022,-0.902,-0.9027,-0.9127,-0.9139,-0.9171,-0.9185,-0.9207,-0.9208,-0.9303,-0.9303,-0.929,0,0,0,-0.8937,-0.8921,-0.8962,-0.8949,-0.902,-0.9075,-0.9026,-0.9131,-0.9144,-0.9185,-0.9207,-0.9209,-0.9303,-0.9303,-0.9289,-0.9288,0,0,0,-0.8917,-0.8919,-0.8932,-0.8947,-0.8991,-0.9074,-0.9092,-0.9135,-0.9152,-0.9205,-0.921,-0.9303,-0.9303,-0.9289,-0.9288,-0.9306,0,0,0,-0.8889,-0.8919,-0.8931,-0.8971,-0.899,-0.9064,-0.9092,-0.9148,-0.9191,-0.9207,-0.9303,-0.9303,-0.9289,-0.9288,-0.9306,-0.9318,-0.932,0,0,-0.8915,-0.8922,-0.8947,-0.8961,-0.9025,-0.9049,-0.9114,-0.9177,-0.9205,-0.927,-0.9272,-0.9289,-0.9288,-0.9306,-0.9342,-0.9344,0,0,0,-0.8948,-0.8966,-0.8988,-0.9027,-0.9074,-0.9115,-0.917,-0.9193,-0.9249,-0.9232,-0.9302,-0.9302,-0.9314,-0.9321,-0.9322,-0.9334,-0.9305,-0.9305,-0.9305,-0.8952,-0.8983,-0.9028,-0.9072,-0.9109,-0.9165,-0.9199,-0.9241,-0.9264,-0.928,-0.9299,-0.9317,-0.9324,-0.9325,-0.9337,-0.9308,-0.9308,-0.9308,-0.9308,-0.8993,-0.9024,-0.9051,-0.9104,-0.9138,-0.9184,-0.9239,-0.9253,-0.9303,-0.9305,-0.9317,-0.9317,-0.9326,-0.9339,-0.9307,-0.9307,-0.9307,-0.9307,-0.9307,-0.9,-0.902,-0.9046,-0.9105,-0.9148,-0.9192,-0.9237,-0.9267,-0.9296,-0.9308,-0.9333,-0.9333,-0.9338,-0.9318,-0.9318,-0.9318,-0.9318,-0.9318,-0.9318,-0.8997,-0.9027,-0.906,-0.9111,-0.914,-0.9182,-0.9238,-0.9268,-0.931,-0.9328,-0.9329,-0.935,-0.932,-0.9312,-0.9319,-0.9319,-0.9319,-0.9319,-0.9318,-0.9029,-0.9026,-0.9076,-0.9105,-0.9168,-0.9208,-0.9245,-0.9304,-0.9333,-0.9355,-0.9374,-0.9346,-0.9357,-0.9356,-0.935,-0.9366,-0.9366,-0.9366,-0.9366,-0.9035,-0.9042,-0.91,-0.9143,-0.919,-0.9228,-0.9287,-0.9331,-0.9377,-0.9398,-0.94,-0.9394,-0.9391,-0.9404,-0.9402,-0.9396,-0.9424,-0.9424,-0.9424,-0.9056,-0.9069,-0.9112,-0.9154,-0.9205,-0.925,-0.9306,-0.9357,-0.9409,-0.9427,-0.9415,-0.9412,-0.9403,-0.9399,-0.9416,-0.9413,-0.9404,0,0]},{"header":{"parameterUnit":"m.s-1","parameterCategory":1,"la1":30.2992,"la2":30.254,"lo1":-89.0895,"lo2":-89.0443,"dy":0.0025,"dx":0.0025,"nx":19,"ny":19,"refTime":"2026-04-16T03:00:00:Z","depth":0,"parameterNumber":3,"parameterNumberName":"V-component_of_WINDS"},"data":[0,0,0,3.836,3.8361,3.838,3.838,3.8413,3.8413,0,0,0,0,0,0,0,0,0,0,0,3.836,3.836,3.836,3.8361,3.838,3.838,3.8413,3.8413,0,0,0,0,0,0,0,0,0,0,0,3.8359,3.836,3.836,3.8361,3.838,3.838,3.8413,3.8395,0,0,0,0,0,0,0,0,0,0,3.8375,3.838,3.836,3.836,3.8361,3.838,3.838,3.8394,3.8396,3.8408,0,3.842,0,3.8417,3.8416,3.8416,0,0,0,3.8357,3.8378,3.8379,3.836,3.8361,3.838,3.837,3.8395,3.8398,3.8411,3.842,3.8421,3.8418,3.8416,3.8417,3.8497,3.8498,0,0,3.8356,3.8366,3.8377,3.838,3.8378,3.837,3.8371,3.8397,3.8407,3.842,3.8422,3.8418,3.8417,3.8417,3.8496,3.8497,0,0,0,3.8355,3.8365,3.8365,3.8379,3.8382,3.837,3.8372,3.8406,3.8405,3.8422,3.8419,3.8417,3.8417,3.8496,3.8497,3.8534,0,0,0,3.8354,3.8365,3.8365,3.8371,3.8382,3.8395,3.8381,3.8404,3.8406,3.8419,3.8417,3.8418,3.8495,3.8496,3.8531,3.8549,0,0,0,3.8357,3.8365,3.837,3.8372,3.838,3.8394,3.8394,3.8404,3.8404,3.8416,3.8418,3.8495,3.8496,3.8529,3.8546,3.8573,0,0,0,3.8361,3.8402,3.837,3.8415,3.838,3.8417,3.8394,3.8421,3.8436,3.8417,3.8495,3.8497,3.8529,3.8543,3.857,3.8596,3.8608,0,0,3.8418,3.841,3.8435,3.8407,3.8452,3.8413,3.8464,3.8468,3.846,3.8485,3.8487,3.8532,3.8545,3.8572,3.8675,3.8684,0,0,0,3.8456,3.8475,3.8484,3.8499,3.8504,3.8509,3.8504,3.8506,3.8527,3.8475,3.855,3.8557,3.8572,3.8584,3.8592,3.8604,3.8503,3.8503,3.8503,3.855,3.8538,3.8579,3.857,3.8585,3.858,3.8591,3.8592,3.8575,3.8593,3.86,3.8664,3.8678,3.8684,3.8697,3.8614,3.8614,3.8614,3.8614,3.8632,3.8655,3.8633,3.8665,3.8652,3.8679,3.8676,3.8663,3.8686,3.8657,3.867,3.8639,3.8695,3.8705,3.8617,3.8616,3.8616,3.8616,3.8616,3.8691,3.87,3.8702,3.8722,3.874,3.8729,3.8752,3.8739,3.8728,3.8741,3.8746,3.8746,3.8743,3.8745,3.8745,3.8745,3.8745,3.8746,3.8746,3.8751,3.8752,3.8773,3.8782,3.879,3.8799,3.8795,3.8803,3.8808,3.8797,3.8797,3.8778,3.8703,3.8684,3.8749,3.8748,3.8748,3.8748,3.8747,3.8835,3.8815,3.8847,3.8855,3.8865,3.8882,3.8867,3.8884,3.8888,3.89,3.8879,3.8826,3.8816,3.8809,3.8793,3.8882,3.8882,3.8882,3.8882,3.8884,3.8879,3.8909,3.8923,3.8935,3.8925,3.8961,3.8959,3.8954,3.8956,3.8941,3.892,3.8913,3.8907,3.8898,3.8882,3.8992,3.8992,3.8993,3.8935,3.893,3.8963,3.8958,3.8965,3.8971,3.9005,3.9022,3.9011,3.8997,3.8957,3.8952,3.8917,3.8906,3.8889,3.8875,3.8847,0,0]}]]